Location: Chillicothe
(39.7950°N, 93.5520°W)
Time: 14:04:00
(UTC-05:00)

Transit 4A - All Passes

Search period start: 20 October 2019 00:00
Search period end: 30 October 2019 00:00
Orbit: 867 x 978 km, 66.8° (Epoch: 19 October)

Date Brightness Start Highest point End Pass type
(mag) Time Alt. Az. Time Alt. Az. Time Alt. Az.
20 Oct - 04:12:14 10° SE 04:16:01 17° ESE 04:19:47 10° ENE visible
20 Oct - 05:55:18 10° SSW 06:01:40 78° WNW 06:07:57 10° NNE visible
20 Oct - 07:45:09 10° W 07:49:02 17° NW 07:52:53 10° N daylight
20 Oct - 13:14:10 10° N 13:18:15 19° NE 13:22:17 10° E daylight
20 Oct - 14:59:24 10° NNW 15:05:23 84° WSW 15:11:13 10° SSE daylight
20 Oct - 16:49:33 10° W 16:50:42 11° W 16:51:52 10° WSW daylight
21 Oct - 04:20:02 10° SSE 04:25:06 25° ESE 04:30:05 10° NE visible
21 Oct - 06:04:52 10° SW 06:11:05 54° WNW 06:17:12 10° NNE visible
21 Oct - 07:56:29 10° WNW 07:58:53 12° NW 08:01:14 10° NNW daylight
21 Oct - 13:23:01 10° N 13:27:57 26° NE 13:32:45 10° ESE daylight
21 Oct - 15:08:51 10° NW 15:14:39 55° WSW 15:20:18 10° S daylight
22 Oct - 04:28:26 10° S 04:34:14 38° ESE 04:39:57 10° NE visible
22 Oct - 06:14:42 10° WSW 06:20:34 38° NW 06:26:21 10° NNE visible
22 Oct - 13:32:04 10° NNW 13:37:32 36° NE 13:42:52 10° ESE daylight
22 Oct - 15:18:29 10° NW 15:23:50 36° WSW 15:29:04 10° S daylight
23 Oct - 04:37:14 10° S 04:43:27 57° ESE 04:49:33 10° NE visible
23 Oct - 06:24:50 10° WSW 06:30:08 27° NW 06:35:23 10° N visible
23 Oct - 11:57:33 10° NNE 11:59:10 11° NE 12:00:47 10° NE daylight
23 Oct - 13:41:11 10° NNW 13:47:02 52° NE 13:52:41 10° SE daylight
23 Oct - 15:28:23 10° NW 15:32:56 24° WSW 15:37:26 10° SSW daylight
24 Oct - 03:04:58 10° ESE 03:07:17 12° E 03:09:34 10° E visible
24 Oct - 04:46:22 10° SSW 04:52:43 83° ESE 04:58:59 10° NNE visible
24 Oct - 06:35:18 10° W 06:39:49 20° NW 06:44:18 10° N visible
24 Oct - 12:05:39 10° N 12:09:01 15° NE 12:12:21 10° ENE daylight
24 Oct - 13:50:27 10° NNW 13:56:26 77° ENE 14:02:15 10° SSE daylight
24 Oct - 15:38:50 10° WNW 15:41:59 15° WSW 15:45:05 10° SW daylight
25 Oct - 03:11:58 10° SSE 03:16:18 19° ESE 03:20:36 10° ENE visible
25 Oct - 04:55:45 10° SW 05:02:05 69° WNW 05:08:18 10° NNE visible
25 Oct - 06:46:12 10° WNW 06:49:36 15° NW 06:52:58 10° N visible
25 Oct - 12:14:21 10° N 12:18:46 21° NE 12:23:05 10° E daylight
25 Oct - 13:59:49 10° NNW 14:05:44 73° WSW 14:11:31 10° SSE daylight
26 Oct - 03:20:02 10° SSE 03:25:24 29° ESE 03:30:41 10° NE visible
26 Oct - 05:05:25 10° SW 05:11:31 48° NW 05:17:31 10° NNE visible
26 Oct - 06:58:02 10° NW 06:59:28 11° NNW 07:00:54 10° NNW visible
26 Oct - 12:23:18 10° N 12:28:25 29° NE 12:33:25 10° ESE daylight
26 Oct - 14:09:19 10° NW 14:14:58 47° WSW 14:20:30 10° S daylight
27 Oct - 03:28:36 10° S 03:34:34 44° ESE 03:40:27 10° NE visible
27 Oct - 05:15:22 10° WSW 05:21:02 34° NW 05:26:38 10° NNE visible
27 Oct - 12:32:22 10° NNW 12:37:59 41° NE 12:43:26 10° ESE daylight
27 Oct - 14:19:01 10° NW 14:24:07 31° WSW 14:29:07 10° SSW daylight
28 Oct - 03:37:31 10° SSW 03:43:48 66° ESE 03:49:59 10° NE visible
28 Oct - 05:25:36 10° W 05:30:39 24° NW 05:35:38 10° N visible
28 Oct - 10:57:21 10° NNE 10:59:44 12° NE 11:02:06 10° ENE daylight
28 Oct - 12:41:32 10° NNW 12:47:26 60° ENE 12:53:10 10° SE daylight
28 Oct - 14:29:05 10° WNW 14:33:12 20° WSW 14:37:17 10° SSW daylight
29 Oct - 02:04:18 10° SE 02:07:33 15° ESE 02:10:46 10° ENE night (unlit)
29 Oct - 03:46:45 10° SSW 03:53:07 86° WNW 03:59:22 10° NNE visible
29 Oct - 05:36:13 10° W 05:40:21 18° NW 05:44:28 10° N visible
29 Oct - 11:05:47 10° N 11:09:34 17° NE 11:13:16 10° E daylight
29 Oct - 12:50:49 10° NNW 12:56:48 88° ENE 13:02:37 10° SSE daylight
29 Oct - 14:39:58 10° WNW 14:42:13 12° WSW 14:44:27 10° SW daylight
